Fullerton, CA

11:00 PM PDT on June 19, 2018 (GMT -0700)
Fullerton Municipal

Weather History for KFUL - October, 2017

Change the Weather History Date:

Sunday, October 8, 2017

  Actual Average Record
Temperature  
Mean Temperature 71 °F 69 °F  
Max Temperature 80 °F 80 °F 97 °F (1999)
Min Temperature 62 °F 59 °F 53 °F (2011)
Degree Days  
Heating Degree Days 0 0  
Month to date heating degree days 0 0  
Since 1 July heating degree days 0 1  
Cooling Degree Days 6 5  
Month to date cooling degree days 55 43  
Year to date cooling degree days 1587 1161  
Growing Degree Days 20 (Base 50)    
Moisture  
Dew Point 60 °F    
Average Humidity 73    
Maximum Humidity 93    
Minimum Humidity 52    
Precipitation  
Precipitation 0.00 in 0.01 in 0.02 in (1973)
Month to date precipitation T 0.09  
Year to date precipitation 11.18 10.07  
Sea Level Pressure  
Sea Level Pressure 29.74 in    
Wind  
Wind Speed 5 mph (SSE)    
Max Wind Speed 13 mph    
Max Gust Speed 17 mph    
Visibility 9 miles    
Events      
T = Trace of Precipitation, MM = Missing Value Source: NWS Daily Summary

Daily Weather History Graph

Daily Weather History Graph

Search for Another Location

Airport or City:

Astronomy

Oct. 08, 2017 Rise Set
Actual Time 6:51 AM PDT 6:26 PM PDT
Civil Twilight 6:26 AM PDT 6:51 PM PDT
Nautical Twilight 5:57 AM PDT 7:20 PM PDT
Astronomical Twilight 5:28 AM PDT 7:49 PM PDT
Moon 8:58 PM PDT (10/8) 9:53 AM PDT (10/8)
Length of Visible Light 12h 24m
Length of Day
11h 34m
Waning Gibbous, 88% of the Moon is Illuminated
Oct 8
Waning Gibbous
Oct 12
Last Quarter
Oct 19
New
Oct 27
First Quarter
Nov 3
Full

Hourly Weather History & Observations

Time (PDT) Temp. Dew Point Humidity Pressure Visibility Wind Dir Wind Speed Gust Speed Precip Events Conditions
12:41 AM 66.9 °F 64.9 °F 93% 29.74 in 7.0 mi SE 4.6 mph - N/A   Scattered Clouds
12:53 AM 66.9 °F 64.9 °F 93% 29.73 in 6.0 mi SSE 4.6 mph - N/A   Mostly Cloudy
1:49 AM 66.2 °F 64.4 °F 94% 29.74 in 6.0 mi Calm Calm - N/A   Mist
1:53 AM 66.9 °F 64.9 °F 93% 29.74 in 6.0 mi Calm Calm - N/A   Mist
2:31 AM 66.0 °F 64.0 °F 93% 29.73 in 6.0 mi Calm Calm - N/A   Partly Cloudy
2:53 AM 66.0 °F 63.0 °F 90% 29.72 in 6.0 mi Calm Calm - N/A   Clear
3:02 AM 64.9 °F 63.0 °F 93% 29.72 in 6.0 mi Calm Calm - N/A   Scattered Clouds
3:11 AM 64.9 °F 63.0 °F 93% 29.72 in 6.0 mi Calm Calm - N/A   Mostly Cloudy
3:53 AM 64.9 °F 61.0 °F 87% 29.72 in 8.0 mi East 3.5 mph - N/A   Overcast
4:53 AM 63.0 °F 57.0 °F 81% 29.73 in 10.0 mi Calm Calm - N/A   Mostly Cloudy
5:09 AM 62.1 °F 55.9 °F 80% 29.73 in 10.0 mi Calm Calm - N/A   Scattered Clouds
5:45 AM 62.1 °F 55.0 °F 78% 29.73 in 10.0 mi East 4.6 mph - N/A   Mostly Cloudy
5:53 AM 63.0 °F 55.0 °F 75% 29.73 in 10.0 mi ENE 3.5 mph - N/A   Mostly Cloudy
6:53 AM 62.1 °F 55.9 °F 80% 29.74 in 10.0 mi ENE 4.6 mph - N/A   Mostly Cloudy
7:53 AM 63.0 °F 57.9 °F 84% 29.75 in 9.0 mi East 5.8 mph - N/A   Overcast
8:53 AM 64.9 °F 61.0 °F 87% 29.76 in 7.0 mi ESE 4.6 mph - N/A   Overcast
9:09 AM 66.0 °F 60.1 °F 81% 29.77 in 8.0 mi ENE 4.6 mph - N/A   Overcast
9:42 AM 69.1 °F 60.1 °F 73% 29.78 in 10.0 mi Variable 3.5 mph - N/A   Scattered Clouds
9:53 AM 69.1 °F 60.1 °F 73% 29.77 in 10.0 mi South 3.5 mph - N/A   Partly Cloudy
10:53 AM 73.0 °F 60.1 °F 64% 29.76 in 10.0 mi South 4.6 mph - N/A   Clear
11:53 AM 73.9 °F 59.0 °F 59% 29.76 in 10.0 mi Calm Calm - N/A   Clear
12:53 PM 78.1 °F 60.1 °F 54% 29.73 in 10.0 mi SSW 8.1 mph - N/A   Clear
1:53 PM 78.1 °F 59.0 °F 52% 29.70 in 10.0 mi Variable 6.9 mph - N/A   Clear
2:53 PM 77.0 °F 59.0 °F 54% 29.70 in 10.0 mi South 10.4 mph - N/A   Clear
3:53 PM 75.0 °F 59.0 °F 57% 29.70 in 10.0 mi South 8.1 mph - N/A   Partly Cloudy
4:53 PM 72.0 °F 60.1 °F 66% 29.71 in 10.0 mi South 6.9 mph - N/A   Partly Cloudy
5:53 PM 69.1 °F 59.0 °F 70% 29.71 in 10.0 mi South 8.1 mph - N/A   Clear
6:53 PM 66.9 °F 60.1 °F 79% 29.72 in 10.0 mi South 4.6 mph - N/A   Mostly Cloudy
7:53 PM 66.9 °F 60.1 °F 79% 29.73 in 10.0 mi South 6.9 mph - N/A   Overcast
8:53 PM 66.9 °F 59.0 °F 76% 29.75 in 10.0 mi Variable 4.6 mph - N/A   Overcast
9:53 PM 66.0 °F 57.9 °F 75% 29.76 in 10.0 mi SSE 8.1 mph - N/A   Overcast
10:53 PM 66.0 °F 57.9 °F 75% 29.78 in 10.0 mi South 5.8 mph - N/A   Overcast
11:53 PM 66.9 °F 57.9 °F 73% 29.79 in 10.0 mi SSE 4.6 mph - N/A   Overcast